Location: Clover
(42.5131°N, 114.6874°W)
Time: 13:29:25
(UTC+00:00)

Explorer 7 - Pass Details

Date: 18 December 2025
Orbit: 433 x 550 km, 50.2° (Epoch: 13 January)

Event Time Altitude Azimuth Distance (km) Brightness Sun altitude
Rises 00:55:58 0° 274° (W) 2,483 11.4 -8.8°
Reaches altitude 10° 00:58:22 10° 287° (WNW) 1,590 10.0 -9.2°
Maximum altitude 01:01:28 27° 347° (NNW) 893 7.8 -9.7°
Enters shadow 01:04:02 13° 43° (NE) 1,398 8.3 -10.2°
